Location: Newark
(52.2167°N, 10.7833°E)
Time: 20:54:01
(UTC+00:00)

X-37B - Visible Passes

Search period start: 18 September 2020 00:00
Search period end: 28 September 2020 00:00
Orbit: 386 x 387 km, 45.0° (Epoch: 18 September)

Date Brightness Start Highest point End Pass type
(mag) Time Alt. Az. Time Alt. Az. Time Alt. Az.
18 Sep 2.2 03:25:02 20° SSW 03:25:46 22° S 03:28:19 10° ESE visible
19 Sep 3.2 02:29:08 14° SE 02:29:08 14° SE 02:29:50 10° ESE visible
19 Sep 2.3 04:01:25 12° SW 04:03:24 20° S 04:05:52 10° SE visible
20 Sep 2.3 03:05:33 21° SSE 03:05:33 21° SSE 03:07:35 10° SE visible
21 Sep 2.4 03:42:02 17° SSW 03:42:39 17° SSW 03:44:51 10° SSE visible
22 Sep 3.3 02:46:19 12° SE 02:46:19 12° SE 02:46:44 10° SE visible
23 Sep 3.1 03:23:01 12° S 03:23:01 12° S 03:23:33 10° SSE visible
